Погода в Тахтоямске

Россия / Магаданская область     60°11′52″N   154°40′47″E
темп.,
°C
ветер,
м/с
пор.,
м/с
влажн.,
%
обл.,
%
осадки,
мм/ч
давл.,
гПа
погр.,
м
20 января, чт
чт2023:00−22ссз22730 0.0 102511
02:00−21ссз32753 0.0 102513
05:00−21ссз11761 0.0 102511
08:00−20ссз22750 0.0 102411
11:00−19сз22760 0.0 102411
14:00−16ссз22792 0.0 102311
17:00−19сз32762 0.0 102212
20:00−21сз22760 0.0 102210
21 января, пт
пт2123:00−21ссз22760 0.0 102111
02:00−22сз22760 0.0 102110
05:00−22сз22760 0.0 102011
08:00−22сз22760 0.0 102011
11:00−21сз22770 0.0 102013
14:00−18ссз11810 0.0 10199
17:00−23ссз21801 0.0 101810
20:00−24ссз22790 0.0 101811
22 января, сб
сб2223:00−24сз22780 0.0 101711
02:00−24сз21790 0.0 101611
05:00−24сз21794 0.0 101611
08:00−24сз21805 0.0 101512
11:00−22ссз1181100 0.0 101515
14:00−18вюв0184100 0.0 101322
17:00−20сз1184100 0.0 101214
20:00−21ссз2181100 0.0 101218
23 января, вс
вс2323:00−24сз228097 0.0 101121
02:00−24сз2281100 0.0 101121
05:00−24сз2282100 0.0 101022
08:00−25сз228299 0.0 101021
11:00−25сз228289 0.0 101031
14:00−23сз128232 0.0 100945
17:00−27сз228319 0.0 100918
20:00−28сз338315 0.0 101025
24 января, пн
пн2423:00−29сз22835 0.0 101124
02:00−30сз22845 0.0 101125
05:00−30сз33854 0.0 101228
08:00−31сз33842 0.0 101330
11:00−29ссз238428 0.0 101449
14:00−26ссз228238 0.0 101469
17:00−30сз228467 0.0 101623
20:00−30сз3384100 0.0 101738